Kenora, Ontario

12:01 PM CDT on April 25, 2017 (GMT -0500)
Kenora

Weather History for CYQK - January, 2014

Change the Weather History Date:

Monday, January 6, 2014

  Actual Average Record
Temperature  
Mean Temperature -24 °F -  
Max Temperature -19 °F 10 °F 59 °F (2005)
Min Temperature -28 °F -8 °F -28 °F (2014)
Degree Days  
Heating Degree Days 88    
Moisture  
Dew Point -31 °F    
Average Humidity 68    
Maximum Humidity 76    
Minimum Humidity 50    
Precipitation  
Precipitation 0.00 in 0.03 in - ()
Sea Level Pressure  
Sea Level Pressure 30.22 in    
Wind  
Wind Speed 8 mph ()    
Max Wind Speed 13 mph    
Max Gust Speed 22 mph    
Visibility 10.6 miles    
Events Snow    
Averages and records for this station are not official NWS values.
T = Trace of Precipitation, MM = Missing Value Source: Averaged Metar Reports

Daily Weather History Graph

Daily Weather History Graph

Search for Another Location

Airport or City:

Trip Planner

Search our weather history database for the weather conditions in past years. The results will help you decide how hot, cold, wet, or windy it might be!

Date:

Astronomy

Jan. 06, 2014 Rise Set
Actual Time 8:14 AM CST 4:33 PM CST
Civil Twilight 7:36 AM CST 5:10 PM CST
Nautical Twilight 6:55 AM CST 5:51 PM CST
Astronomical Twilight 6:16 AM CST 6:30 PM CST
Moon 10:52 AM CST (1/6) 11:47 PM CST (1/6)
Length of Visible Light 9h 34m
Length of Day
8h 19m
Waxing Crescent, 35% of the Moon is Illuminated
Jan 6
Waxing Crescent
Jan 7
First Quarter
Jan 15
Full
Jan 23
Last Quarter
Jan 30
New

Hourly Weather History & Observations

Time (CST) Temp. Windchill Dew Point Humidity Pressure Visibility Wind Dir Wind Speed Gust Speed Precip Events Conditions
12:00 AM -26 °F - -32 °F 56% 30.32 in 15 mi NW 11.5 mph - - Snow Snow
12:00 AM -25.6 °F -46.8 °F -32.8 °F 69% 30.32 in 15.0 mi NW 9.2 mph 17.3 mph N/A   Ice Crystals
1:00 AM -27.4 °F -50.3 °F -32.8 °F 75% 30.31 in 10.0 mi NW 10.4 mph 17.3 mph N/A   Ice Crystals
2:00 AM -27.4 °F -50.3 °F -32.8 °F 75% 30.31 in 15.0 mi WNW 10.4 mph 17.3 mph N/A   Ice Crystals
3:00 AM -27.4 °F -47.6 °F -32.8 °F 75% 30.30 in 15.0 mi WNW 8.1 mph - N/A   Ice Crystals
4:00 AM -27.4 °F -45.9 °F -32.8 °F 75% 30.30 in 15.0 mi WNW 6.9 mph - N/A   Mostly Cloudy
5:00 AM -27.4 °F -45.9 °F -32.8 °F 75% 30.29 in 12.0 mi WNW 6.9 mph - N/A   Ice Crystals
6:00 AM -27 °F - -33 °F 57% 30.29 in 12 mi NW 9.2 mph - - Snow Snow
6:00 AM -27.4 °F -47.6 °F -32.8 °F 75% 30.29 in 12.0 mi WNW 8.1 mph - N/A   Ice Crystals
7:00 AM -27.4 °F -47.6 °F -34.6 °F 69% 30.27 in 12.0 mi WNW 8.1 mph - N/A   Ice Crystals
8:00 AM -27.4 °F -50.3 °F -34.6 °F 69% 30.26 in 10.0 mi WNW 10.4 mph - N/A   Ice Crystals
9:00 AM -27.4 °F -45.9 °F -34.6 °F 69% 30.26 in 10.0 mi WNW 6.9 mph - N/A   Ice Crystals
10:00 AM -25.6 °F -49.2 °F -32.8 °F 69% 30.25 in 10.0 mi WNW 11.5 mph 21.9 mph N/A   Ice Crystals
11:00 AM -23.8 °F -45.8 °F -32.8 °F 63% 30.23 in 8.0 mi WNW 10.4 mph - N/A   Ice Crystals
12:00 PM -23 °F - -31 °F 50% 30.22 in 3 mi NW 11.5 mph - - Snow Snow
12:00 PM -23.8 °F -44.5 °F -31.0 °F 69% 30.22 in 3.0 mi NW 9.2 mph 20.7 mph N/A   Ice Crystals
1:00 PM -22.0 °F -45.7 °F -29.2 °F 69% 30.19 in 4.0 mi NW 12.7 mph - N/A Snow Light Snow
2:00 PM -20.2 °F -41.3 °F -27.4 °F 69% 30.19 in 6.0 mi WNW 10.4 mph - N/A Snow Light Snow
3:00 PM -18.4 °F -35.1 °F -27.4 °F 63% 30.18 in 12.0 mi NW 6.9 mph - N/A Snow Light Snow
4:00 PM -20.2 °F -40.1 °F -27.4 °F 69% 30.17 in 12.0 mi West 9.2 mph - N/A   Ice Crystals
5:00 PM -22.0 °F -42.3 °F -29.2 °F 69% 30.17 in 6.0 mi West 9.2 mph - N/A   Ice Crystals
6:00 PM -22 °F - -28 °F 57% 30.16 in 10 mi West 9.2 mph - - Snow Snow
6:00 PM -22.0 °F -42.3 °F -29.2 °F 69% 30.16 in 10.0 mi West 9.2 mph - N/A   Ice Crystals
7:00 PM -22.0 °F -41.0 °F -29.2 °F 69% 30.15 in 12.0 mi West 8.1 mph - N/A   Ice Crystals
8:00 PM -22.0 °F -42.3 °F -29.2 °F 69% 30.14 in 12.0 mi West 9.2 mph - N/A   Ice Crystals
9:00 PM -23.8 °F -44.5 °F -29.2 °F 76% 30.13 in 12.0 mi West 9.2 mph - N/A   Partly Cloudy
10:00 PM -22.0 °F -43.6 °F -29.2 °F 69% 30.09 in 12.0 mi West 10.4 mph - N/A   Partly Cloudy
11:00 PM -22.0 °F -41.0 °F -27.4 °F 76% 30.07 in 12.0 mi West 8.1 mph - N/A   Partly Cloudy